RYR8WH LPPR-LEPA

Flight info

Callsign RYR8WH
Flight time N/A
Altitude 31000
Route PESUL9E PESUL DCT RIVRO DCT BARDI/N0412F320 M191 DIPOL/N0435F380 M871 NVS/N0433F370 DCT NANDO DCT MINGU DCT ABOSI DCT MABUX DCT RETBA DCT MOPIR DCT LASPO/N0365F260 M871 GODOX GODOX4P
Aircraft B738/M-SDE2E3FGHIRWXY/LB1

Departure

Time 2026-05-05 17:28
Airport Francisco de Sá Carneiro Airport (LPPR)

Arrival

Time N/A
Airport Palma de Mallorca Airport (LEPA)
Time Latitude Longitude Altitude Speed Heading
2026-05-05 16:35 41.23829 -8.67393 230 ft 0 kts 80°
2026-05-05 17:17 41.23827 -8.67403 230 ft 2 kts 80°
2026-05-05 17:17 41.23824 -8.67425 229 ft 2 kts 80°
2026-05-05 17:18 41.23822 -8.67446 231 ft 2 kts 73°
2026-05-05 17:18 41.23814 -8.67466 231 ft 2 kts 26°
2026-05-05 17:18 41.23805 -8.67469 230 ft 1 kts 348°
2026-05-05 17:18 41.23802 -8.67468 230 ft 0 kts 347°
2026-05-05 17:23 41.23803 -8.67468 228 ft 0 kts 347°
2026-05-05 17:23 41.23812 -8.67471 228 ft 2 kts 347°
2026-05-05 17:23 41.23824 -8.67475 228 ft 2 kts 348°
2026-05-05 17:23 41.23837 -8.67478 228 ft 2 kts 349°
2026-05-05 17:24 41.23849 -8.67481 228 ft 2 kts 350°
2026-05-05 17:24 41.23862 -8.67484 227 ft 2 kts 348°
2026-05-05 17:24 41.23879 -8.67490 227 ft 3 kts 346°
2026-05-05 17:24 41.23903 -8.67503 226 ft 5 kts 329°
2026-05-05 17:25 41.23926 -8.67550 223 ft 7 kts 273°
2026-05-05 17:25 41.23924 -8.67601 221 ft 9 kts 259°
2026-05-05 17:25 41.23904 -8.67730 223 ft 0 kts 258°
2026-05-05 17:25 41.23904 -8.67731 222 ft 0 kts 258°
2026-05-05 17:26 41.23903 -8.67738 220 ft 1 kts 257°
2026-05-05 17:26 41.23901 -8.67746 217 ft 1 kts 257°
2026-05-05 17:26 41.23899 -8.67760 217 ft 3 kts 259°
2026-05-05 17:26 41.23890 -8.67821 226 ft 11 kts 259°
2026-05-05 17:27 41.23941 -8.67899 219 ft 16 kts 350°
2026-05-05 17:27 41.24200 -8.67966 210 ft 69 kts 348°
2026-05-05 17:27 41.24881 -8.68146 200 ft 129 kts 348°
2026-05-05 17:27 41.25887 -8.68451 387 ft 156 kts 343°
2026-05-05 17:28 41.26964 -8.68816 942 ft 163 kts 347°
2026-05-05 17:28 41.28036 -8.69092 1867 ft 148 kts 348°
2026-05-05 17:28 41.29014 -8.69305 2714 ft 140 kts 347°
2026-05-05 17:28 41.30059 -8.69555 3042 ft 166 kts 346°
2026-05-05 17:29 41.31279 -8.69856 3358 ft 190 kts 346°
2026-05-05 17:29 41.32155 -8.70076 3625 ft 196 kts 346°
2026-05-05 17:29 41.33544 -8.70149 4077 ft 208 kts 14°
2026-05-05 17:29 41.35016 -8.68450 4884 ft 224 kts 59°
2026-05-05 17:30 41.35335 -8.67104 5324 ft 231 kts 81°
2026-05-05 17:30 41.34985 -8.64269 6195 ft 237 kts 108°
2026-05-05 17:30 41.34579 -8.62873 6595 ft 242 kts 111°
2026-05-05 17:30 41.33918 -8.60804 7199 ft 243 kts 112°
2026-05-05 17:31 41.33232 -8.58709 7688 ft 256 kts 112°
2026-05-05 17:31 41.32500 -8.56461 7861 ft 280 kts 112°
2026-05-05 17:31 41.31703 -8.53997 8255 ft 295 kts 112°
2026-05-05 17:31 41.30885 -8.51453 8937 ft 298 kts 112°
2026-05-05 17:32 41.30073 -8.48918 9702 ft 300 kts 112°
2026-05-05 17:32 41.29245 -8.46317 10270 ft 307 kts 112°
2026-05-05 17:32 41.28392 -8.43635 10550 ft 326 kts 112°
2026-05-05 17:32 41.27484 -8.40771 10762 ft 344 kts 112°
2026-05-05 17:33 41.26541 -8.37792 11244 ft 353 kts 112°
2026-05-05 17:33 41.25587 -8.34782 11978 ft 354 kts 112°
2026-05-05 17:33 41.24623 -8.31742 12606 ft 359 kts 112°
2026-05-05 17:33 41.23647 -8.28663 13259 ft 364 kts 112°
2026-05-05 17:34 41.22657 -8.25544 13948 ft 368 kts 112°
2026-05-05 17:34 41.21657 -8.22397 14573 ft 372 kts 112°
2026-05-05 17:34 41.20643 -8.19207 15142 ft 378 kts 112°
2026-05-05 17:34 41.19612 -8.15968 15735 ft 383 kts 112°
2026-05-05 17:35 41.18568 -8.12694 16345 ft 388 kts 112°
2026-05-05 17:35 41.17507 -8.09371 16928 ft 393 kts 112°
2026-05-05 17:35 41.16432 -8.06007 17535 ft 398 kts 112°
2026-05-05 17:35 41.15360 -8.02654 18146 ft 402 kts 112°
2026-05-05 17:36 41.14255 -7.99203 18626 ft 409 kts 112°
2026-05-05 17:36 41.13134 -7.95708 19143 ft 413 kts 113°
2026-05-05 17:36 41.12004 -7.92188 19699 ft 415 kts 113°
2026-05-05 17:36 41.10864 -7.88644 20210 ft 420 kts 113°
2026-05-05 17:37 41.09714 -7.85070 20740 ft 424 kts 113°
2026-05-05 17:37 41.08552 -7.81468 21256 ft 427 kts 113°
2026-05-05 17:37 41.07377 -7.77828 21742 ft 431 kts 113°
2026-05-05 17:37 41.06192 -7.74163 22235 ft 435 kts 114°
2026-05-05 17:38 41.04993 -7.70458 22711 ft 439 kts 114°
2026-05-05 17:38 41.03783 -7.66726 23208 ft 443 kts 114°
2026-05-05 17:38 41.02560 -7.62956 23681 ft 447 kts 114°
2026-05-05 17:38 41.01329 -7.59168 24065 ft 450 kts 114°
2026-05-05 17:39 41.00084 -7.55343 24471 ft 453 kts 114°
2026-05-05 17:39 40.98831 -7.51499 24883 ft 456 kts 114°
2026-05-05 17:39 40.97585 -7.47681 25276 ft 458 kts 114°
2026-05-05 17:39 40.96301 -7.43754 25676 ft 461 kts 115°
2026-05-05 17:40 40.95042 -7.39906 26061 ft 463 kts 115°
2026-05-05 17:40 40.93756 -7.35983 26439 ft 466 kts 115°
2026-05-05 17:40 40.92466 -7.32051 26818 ft 469 kts 115°
2026-05-05 17:40 40.91161 -7.28080 27172 ft 471 kts 115°
2026-05-05 17:41 40.89849 -7.24097 27513 ft 474 kts 115°
2026-05-05 17:41 40.88525 -7.20080 27841 ft 477 kts 115°
2026-05-05 17:41 40.87196 -7.16054 28190 ft 480 kts 115°
2026-05-05 17:41 40.85852 -7.11990 28540 ft 482 kts 116°
2026-05-05 17:42 40.84507 -7.07924 28899 ft 484 kts 116°
2026-05-05 17:42 40.83154 -7.03845 29212 ft 487 kts 116°
2026-05-05 17:42 40.81787 -6.99728 29530 ft 489 kts 116°
2026-05-05 17:42 40.80416 -6.95605 29841 ft 491 kts 116°
2026-05-05 17:43 40.79038 -6.91466 30029 ft 495 kts 116°
2026-05-05 17:43 40.76853 -6.84920 30003 ft 497 kts 116°